This demonstration page uses our WeatherBlox Daily Observations layout. Learn more.

Left ArrowRight Arrow

38.89511, -77.03637

Hourly Observations for March 2, 2021

Temp ( °F °C ) Dew Point ( °F °C ) Humidity (%) Winds ( mph kmh ) Pressure ( in mb ) Visibility ( mi km ) Precip ( " mm )
12:52 am 00:52 Mostly Clear 39 3.9 17 -8.3 41 41 NW 16 26 30.11 1020 10 16.0934 0 0
1:52 am 01:52 Mostly Clear 37 2.8 22 -5.6 54 54 NW 13 20 30.15 1021 10 16.0934 0 0
2:52 am 02:52 Mostly Clear 36 2.2 20 -6.7 52 52 NW 15 24 30.18 1022 10 16.0934 0 0
3:52 am 03:52 Clear 34 1.1 17 -8.3 50 50 NNW 21 33 30.21 1023 10 16.0934 0 0
4:52 am 04:52 Clear 33 0.6 15 -9.4 47 47 NNW 14 22 30.24 1024 10 16.0934 0 0
5:52 am 05:52 Clear 32 0 13 -10.6 45 45 NNW 12 19 30.26 1025 10 16.0934 0 0
6:52 am 06:52 Mostly Sunny 31 -0.6 13 -10.6 47 47 NNW 15 24 30.29 1026 10 16.0934 0 0
7:52 am 07:52 Mostly Sunny 32 0 12 -11.1 43 43 NNW 15 24 30.32 1027 10 16.0934 0 0
8:52 am 08:52 Mostly Sunny 33 0.6 11 -11.7 40 40 NNW 20 31 30.34 1027 10 16.0934 0 0
9:52 am 09:52 Mostly Sunny 36 2.2 11 -11.7 35 35 NW 13 20 30.34 1028 10 16.0934 0 0
10:52 am 10:52 Mostly Sunny 37 2.8 12 -11.1 36 36 NW 15 24 30.34 1027 10 16.0934 0 0
11:52 am 11:52 Mostly Sunny 39 3.9 12 -11.1 33 33 NNW 14 22 30.31 1027 10 16.0934 0 0
12:52 pm 12:52 Mostly Sunny 41 5 13 -10.6 32 32 NNW 10 17 30.29 1026 10 16.0934 0 0
1:52 pm 13:52 Mostly Sunny 43 6.1 13 -10.6 29 29 NNW 14 22 30.27 1025 10 16.0934 0 0
2:52 pm 14:52 Mostly Sunny 45 7.2 12 -11.1 26 26 N 10 17 30.24 1024 10 16.0934 0 0
3:52 pm 15:52 Sunny 46 7.8 12 -11.1 25 25 undefined N/A 30.24 1024 10 16.0934 0 0
4:52 pm 16:52 Partly Cloudy 45 7.2 11 -11.7 25 25 VRB 3 6 30.22 1023 10 16.0934 0 0
5:52 pm 17:52 Partly Cloudy 43 6.1 11 -11.7 27 27 Calm 30.2 1023 10 16.0934 0 0
6:52 pm 18:52 Partly Cloudy 41 5 17 -8.3 38 38 SE 5 7 30.19 1023 10 16.0934 0 0
7:52 pm 19:52 Partly Cloudy 39 3.9 18 -7.8 43 43 S 7 11 30.18 1022 10 16.0934 0 0
8:52 pm 20:52 Partly Cloudy 37 2.8 19 -7.2 48 48 SSW 7 11 30.19 1022 10 16.0934 0 0
9:52 pm 21:52 Partly Cloudy 37 2.8 17 -8.3 44 44 S 6 9 30.16 1021 10 16.0934 0 0
10:52 pm 22:52 Partly Cloudy 36 2.2 19 -7.2 50 50 SW 3 6 30.14 1021 10 16.0934 0 0
11:52 pm 23:52 Mostly Clear 35 1.7 19 -7.2 52 52 S 9 15 30.12 1020 10 16.0934 0 0

Powered by AerisWeather